Regional Weather Roundup
Issued by NWS

Home | Current Version | Previous Version | Graphics & Text | Print | Product List | Glossary On
Versions: 1 2 3 4 5 6 7 8 9 10 11 12 13 14 15 16 17 18 19 20 21 22 23 24 25 26 27 28 29 30 31 32 33 34 35 36 37 38 39 40 41 42 43 44 45 46 47 48 49 50
000
ASUS43 KBIS 251910
RWRND

NORTH DAKOTA REGIONAL WEATHER ROUNDUP
NATIONAL WEATHER SERVICE BISMARCK ND
200 PM CDT SAT APR 25 2015

NOTE: "FAIR" INDICATES FEW OR NO CLOUDS BELOW 12,000 FEET WITH NO
SIGNIFICANT WEATHER AND/OR OBSTRUCTIONS TO VISIBILITY.


NDZ001>003-009>011-017-252000-
NORTHWEST NORTH DAKOTA

CITY           SKY/WX    TMP DP  RH WIND       PRES   REMARKS
WILLISTON      CLOUDY    50  42  74 SE15      29.75R
MINOT          CLOUDY    55  38  52 E17       29.80S
MINOT AFB      CLOUDY    55  43  63 SE18      29.79F
$$

NDZ018>021-031>035-040>046-252000-
SOUTHWEST NORTH DAKOTA

CITY           SKY/WX    TMP DP  RH WIND       PRES   REMARKS
BISMARCK       CLOUDY    49  41  74 E14       29.82R
DICKINSON      CLOUDY    47  43  86 SE16G24   29.73S
GARRISON         N/A     54  41  61 SE17      29.79S
HETTINGER ARPT CLOUDY    46  43  89 SE15      29.75S FOG
$$

NDZ004>008-012>016-024-026-027-054-252000-
NORTHEAST NORTH DAKOTA

CITY           SKY/WX    TMP DP  RH WIND       PRES   REMARKS
GRAND FORKS    MOSUNNY   58  36  43 VRB3      29.88F
GRND FRKS AFB  CLOUDY    57  38  48 SE8       29.88F
DEVILS LAKE    PTSUNNY   52  37  58 SE20      29.86S
$$

NDZ022-023-025-028>030-036>039-047>053-252000-
SOUTHEAST NORTH DAKOTA

CITY           SKY/WX    TMP DP  RH WIND       PRES   REMARKS
FARGO          CLOUDY    52  38  58 SE12      29.88F
JAMESTOWN      CLOUDY    47  40  76 E10       29.85S
$$



USA.gov is the U.S. government's official web portal to all federal, state and local government web resources and services.